#timestamp,LO_Frequency,Hit,StdDev 
1620039615.5,286047002.1,N
1620039635.3,286046998.3,N
1620039655.2,286046999.9,N
1620039675.9,286047004.0,N
1620039695.7,286047002.5,N
1620039715.6,286047000.0,N
1620039735.4,286047001.2,N
1620039755.2,286046998.5,N
1620039775.1,286047000.0,N
1620039776.0,286047000.0,N
1620039795.8,286047003.2,N
1620039815.7,286047004.2,N
1620039835.5,286047001.9,N
1620039855.3,286047001.7,N
1620039875.2,286046999.9,N
1620039895.0,286046999.4,N
1620039895.9,286046999.4,N
1620039915.8,286047000.3,N
1620039935.6,286047000.9,N
1620039955.4,286047000.1,N
1620039975.3,286047000.9,N
1620039995.1,286046998.8,N
1620040015.8,286047000.6,N
1620040035.7,286047000.0,N
1620040055.5,286047001.2,N
1620040075.4,286046999.3,N
1620040095.2,286046998.9,N
1620040115.0,286047002.6,N
1620040115.9,286047002.6,N
1620040135.8,286047002.8,N
1620040155.6,286047000.5,N
1620040175.4,286047001.2,N
1620040195.3,286046998.4,N
1620040215.1,286046999.6,N
1620040235.9,286046998.0,N
1620040255.7,286046995.8,N
1620040275.5,286046995.7,N
1620040295.4,286046997.9,N
1620040315.2,286046995.9,N
1620040335.0,286046993.8,Y
1620040336.0,286046993.8,P
1620040355.8,286046995.9,N
1620040375.6,286046994.1,N
1620040395.5,286046994.3,N
1620040415.3,286046993.5,N
1620040435.1,286046995.4,N
1620040455.9,286046996.2,N
1620040475.7,286046993.7,Y
1620040495.6,286046999.6,P
1620040515.4,286046996.6,N
1620040535.2,286046998.0,N
1620040555.1,286046995.1,Y
1620040556.0,286046995.1,P
1620040575.8,286047001.7,N
1620040595.7,286047004.2,N
1620040615.5,286046999.9,N
1620040635.3,286046998.5,N
1620040655.2,286046999.0,N
1620040675.9,286046999.1,N
1620040695.7,286046997.0,N
1620040715.6,286046996.7,N
1620040735.4,286046997.5,N
1620040755.3,286046997.5,N
1620040775.1,286046999.3,N
1620040776.0,286046999.3,N
1620040795.8,286046997.8,N
1620040815.7,286046995.4,N
1620040835.5,286046996.2,N
1620040855.3,286046998.0,N
1620040875.2,286046997.9,N
1620040895.0,286046997.7,N
1620040895.9,286046997.7,N
1620040915.8,286046996.7,N
1620040935.6,286046996.8,N
1620040955.4,286046998.3,N
1620040975.3,286046996.8,N
1620040995.1,286046997.6,N
1620041015.9,286046995.5,N
1620041035.7,286046995.6,N
1620041055.5,286046995.9,N
1620041075.4,286046996.2,N
1620041095.2,286046995.6,N
1620041115.0,286046997.2,N
1620041115.9,286046997.2,N
1620041135.8,286046997.0,N
1620041155.6,286046995.6,Y
1620041175.5,286046999.4,P
1620041195.3,286046999.7,N
1620041215.1,286047000.5,N
1620041235.9,286046999.1,N
1620041255.7,286046998.6,N
1620041275.6,286046998.4,N
1620041295.4,286046999.2,N
1620041315.2,286046999.2,N
1620041335.1,286046996.5,Y
1620041336.0,286046996.5,P
1620041355.8,286046999.5,N
1620041375.7,286046999.3,N
1620041395.5,286046997.9,N
1620041415.3,286046999.1,N
1620041435.2,286046998.2,N
1620041455.9,286046999.2,N
1620041475.7,286046998.9,N
1620041495.6,286046999.4,N
1620041515.4,286046999.2,N
1620041535.3,286046996.8,Y
1620041555.1,286046998.2,P
1620041556.0,286046998.2,P
1620041575.8,286047001.0,P
1620041595.7,286047000.4,N
1620041615.5,286047000.8,N
1620041635.3,286046998.9,N
1620041655.2,286046998.9,N
1620041675.0,286046998.8,N
1620041675.9,286046998.8,N
1620041695.8,286046999.1,N
1620041715.6,286046999.2,N
1620041735.4,286046997.8,N
1620041755.3,286046998.0,N
1620041775.1,286046997.5,N
1620041795.9,286046997.0,N
1620041815.7,286046999.1,N
1620041835.5,286046996.8,Y
1620041855.4,286046999.5,P
1620041875.2,286046996.7,P
1620041895.1,286046999.2,N
1620041896.0,286046999.2,N
1620041915.8,286046998.9,N
1620041935.6,286046999.0,N
1620041955.5,286046998.8,N
1620041975.3,286046998.7,N
1620041995.1,286046996.7,Y
1620042015.9,286046998.9,P
1620042035.7,286046999.6,P
1620042055.6,286046996.6,P
1620042075.4,286046999.0,N
1620042095.2,286046999.5,N
1620042115.1,286046996.9,Y
1620042116.0,286046996.9,P
1620042135.8,286046998.8,N
1620042155.7,286046995.1,P
1620042175.5,286046997.8,N
1620042195.3,286046997.7,N
1620042215.2,286046996.8,N
1620042235.0,286046995.4,Y
1620042235.9,286046995.4,P
1620042255.8,286046998.5,N
1620042275.6,286047000.9,N
1620042295.4,286046998.5,N
1620042315.3,286046998.1,N
1620042335.1,286046998.2,N
1620042355.8,286047001.2,N
1620042375.7,286047000.4,N
1620042395.5,286047000.8,N
1620042415.4,286047000.9,N
1620042435.2,286047000.7,N
1620042455.0,286046998.3,N
1620042455.9,286046998.3,N
1620042475.8,286046999.6,N
1620042495.6,286046999.4,N
1620042515.4,286046999.6,N
1620042535.3,286046999.0,N
1620042555.1,286046996.8,N
1620042575.9,286046997.7,N
1620042595.7,286046999.5,N
1620042615.5,286046996.7,N
1620042635.4,286046996.8,N
1620042655.2,286046997.9,N
1620042675.0,286046997.5,N
1620042675.9,286046997.5,N
1620042695.8,286046997.9,N
1620042715.6,286046996.8,N
1620042735.5,286046997.8,N
1620042755.3,286046996.2,N
1620042775.1,286046996.8,N
1620042795.9,286046995.0,Y
1620042815.7,286046995.0,P
1620042835.6,286046997.5,N
1620042855.4,286046997.1,N
1620042875.2,286046999.4,N
1620042895.1,286046997.6,N
1620042896.0,286046997.6,N
1620042915.8,286046997.9,N
1620042935.6,286046995.4,Y
1620042955.5,286046997.3,P
1620042975.3,286046997.7,P
1620042995.2,286046997.5,P
1620043015.9,286046995.2,Y
1620043035.7,286046996.9,P
1620043055.6,286046996.9,P
1620043075.4,286046999.7,N
1620043095.3,286047000.0,N
1620043115.1,286046998.2,N
1620043116.0,286046998.2,N
1620043135.8,286046998.3,N
1620043155.7,286046999.3,N
1620043175.5,286046998.8,N
1620043195.3,286046998.5,N
